GW3049 Weather Reports


time (UTC)temp
C
wind
direction
speed
KPH
gust
KPH
rain 1hr
cm
rain 24hr
cm
rain mn
cm
humidity
%
barometer
mb
20260505140204 14 0.0 0.0 0.00 0.00 0.00 95 1007.7
20260505130207 16 0.0 0.0 0.00 0.00 0.00 88 1007.1
20260505124707 17 0.0 0.0 0.00 0.00 0.00 79 1006.8
20260505124205 18 0.0 0.0 0.00 0.00 0.00 68 1006.5
20260505123707 18 0.0 0.0 0.00 0.00 0.00 68 1006.5
20260505122205 19 0.0 0.0 0.00 0.00 0.00 62 1006.4
20260505121704 19 0.0 0.0 0.00 0.00 0.00 62 1006.4
20260505121205 19 0.0 0.0 0.00 0.00 0.00 62 1006.4
20260505120704 19 0.0 0.0 0.00 0.00 0.00 62 1006.4
20260505115705 19 0.0 0.0 0.00 0.00 0.00 61 1006.3
20260505115205 20 0.0 0.0 0.00 0.00 0.00 60 1006.2
20260505114705 20 0.0 0.0 0.00 0.00 0.00 60 1006.2
20260505114205 20 0.0 0.0 0.00 0.00 0.00 57 1006.2
20260505113705 20 0.0 0.0 0.00 0.00 0.00 57 1006.2
20260505113206 20 0.0 0.0 0.00 0.00 0.00 58 1006.3
20260505112705 20 0.0 0.0 0.00 0.00 0.00 58 1006.3
20260505112204 20 0.0 0.0 0.00 0.00 0.00 58 1006.3
20260505111705 20 0.0 0.0 0.00 0.00 0.00 58 1006.3
20260505111204 20 0.0 0.0 0.00 0.00 0.00 59 1006.4
20260505110705 20 0.0 0.0 0.00 0.00 0.00 59 1006.4
20260505110206 20 0.0 0.0 0.00 0.00 0.00 60 1006.5
20260505102205 19 0.0 0.0 0.00 0.00 0.00 66 1007.0
20260505101705 19 0.0 0.0 0.00 0.00 0.00 66 1007.0
20260505101204 19 0.0 0.0 0.00 0.00 0.00 67 1007.1
20260505100705 19 0.0 0.0 0.00 0.00 0.00 67 1007.1
20260505100204 19 0.0 0.0 0.00 0.00 0.00 67 1007.2
20260505095704 19 0.0 0.0 0.00 0.00 0.00 67 1007.2
20260505095205 18 0.0 0.0 0.00 0.00 0.00 68 1007.2
20260505094705 18 0.0 0.0 0.00 0.00 0.00 68 1007.2
20260505094205 18 0.0 0.0 0.00 0.00 0.00 68 1007.3
20260505093704 18 0.0 0.0 0.00 0.00 0.00 68 1007.3
20260505092705 18 0.0 0.0 0.00 0.00 0.00 68 1007.5
20260505092205 18 0.0 0.0 0.00 0.00 0.00 68 1007.6
20260505091705 18 0.0 0.0 0.00 0.00 0.00 68 1007.6
20260505091205 18 0.0 0.0 0.00 0.00 0.00 68 1007.6
20260505090705 18 0.0 0.0 0.00 0.00 0.00 68 1007.6
20260505090206 18 0.0 0.0 0.00 0.00 0.00 69 1007.8
20260505085705 18 0.0 0.0 0.00 0.00 0.00 69 1007.8
20260505085206 18 0.0 0.0 0.00 0.00 0.00 69 1007.8
20260505084705 18 0.0 0.0 0.00 0.00 0.00 69 1007.8
20260505084205 17 0.0 0.0 0.00 0.00 0.00 69 1007.9
20260505083205 17 0.0 0.0 0.00 0.00 0.00 71 1008.0
20260505082704 17 0.0 0.0 0.00 0.00 0.00 71 1008.0
20260505082205 17 0.0 0.0 0.00 0.00 0.00 71 1008.0
20260505081706 17 0.0 0.0 0.00 0.00 0.00 71 1008.0
20260505081205 17 0.0 0.0 0.00 0.00 0.00 72 1008.0
20260505080706 17 0.0 0.0 0.00 0.00 0.00 72 1008.0
20260505080204 17 0.0 0.0 0.00 0.00 0.00 73 1008.2
20260505075705 17 0.0 0.0 0.00 0.00 0.00 73 1008.2
20260505075206 16 0.0 0.0 0.00 0.00 0.00 74 1008.2
20260505074704 16 0.0 0.0 0.00 0.00 0.00 74 1008.2
20260505074205 16 0.0 0.0 0.00 0.00 0.00 75 1008.2
20260505073704 16 0.0 0.0 0.00 0.00 0.00 75 1008.2
20260505073205 16 0.0 0.0 0.00 0.00 0.00 75 1008.3
20260505072205 16 0.0 0.0 0.00 0.00 0.00 76 1008.4
20260505071707 16 0.0 0.0 0.00 0.00 0.00 76 1008.4
20260505071205 15 0.0 0.0 0.00 0.00 0.00 77 1008.6
20260505070704 15 0.0 0.0 0.00 0.00 0.00 77 1008.6
20260505070204 15 0.0 0.0 0.00 0.00 0.00 78 1008.7
20260505065705 15 0.0 0.0 0.00 0.00 0.00 78 1008.7
20260505065206 15 0.0 0.0 0.00 0.00 0.00 79 1008.6
20260505064705 15 0.0 0.0 0.00 0.00 0.00 79 1008.6
20260505064205 15 0.0 0.0 0.00 0.00 0.00 82 1008.7
20260505063706 15 0.0 0.0 0.00 0.00 0.00 82 1008.7
20260505063204 15 0.0 0.0 0.00 0.00 0.00 83 1008.8
20260505062205 14 0.0 0.0 0.00 0.00 0.00 84 1008.9
20260505061705 14 0.0 0.0 0.00 0.00 0.00 84 1008.9
20260505060705 14 0.0 0.0 0.00 0.00 0.00 85 1009.0
20260505060205 13 0.0 0.0 0.00 0.00 0.00 86 1009.0
20260505055705 13 0.0 0.0 0.00 0.00 0.00 86 1009.0
20260505054704 13 0.0 0.0 0.00 0.00 0.00 88 1009.1
20260505054205 13 0.0 0.0 0.00 0.00 0.00 89 1009.1
20260505053706 13 0.0 0.0 0.00 0.00 0.00 89 1009.1
20260505053205 12 0.0 0.0 0.00 0.00 0.00 91 1009.1
20260505052705 12 0.0 0.0 0.00 0.00 0.00 91 1009.1
20260505052206 12 0.0 0.0 0.00 0.00 0.00 91 1009.1
20260505051705 12 0.0 0.0 0.00 0.00 0.00 91 1009.1
20260505051205 12 0.0 0.0 0.00 0.00 0.00 92 1009.1
20260505050706 12 0.0 0.0 0.00 0.00 0.00 92 1009.1
20260505041704 12 0.0 0.0 0.00 0.00 0.00 88 1009.3
20260505041205 12 0.0 0.0 0.00 0.00 0.00 87 1009.2
20260505040704 12 0.0 0.0 0.00 0.00 0.00 87 1009.2
20260505040206 12 0.0 0.0 0.00 0.00 0.00 87 1009.3
20260505035705 12 0.0 0.0 0.00 0.00 0.00 87 1009.3
20260505035205 12 0.0 0.0 0.00 0.00 0.00 87 1009.3
20260505034707 12 0.0 0.0 0.00 0.00 0.00 87 1009.3
20260505034204 12 0.0 0.0 0.00 0.00 0.00 87 1009.3
20260505033706 12 0.0 0.0 0.00 0.00 0.00 87 1009.3
20260505033204 12 0.0 0.0 0.00 0.00 0.00 86 1009.4
20260505032206 12 0.0 0.0 0.00 0.00 0.00 85 1009.5
20260505031704 12 0.0 0.0 0.00 0.00 0.00 85 1009.5
20260505031205 12 0.0 0.0 0.00 0.00 0.00 84 1009.6
20260505030706 12 0.0 0.0 0.00 0.00 0.00 84 1009.6
20260505030204 12 0.0 0.0 0.00 0.00 0.00 83 1009.7
20260505025704 12 0.0 0.0 0.00 0.00 0.00 83 1009.7
20260505025206 13 0.0 0.0 0.00 0.00 0.00 82 1009.7
20260505024705 13 0.0 0.0 0.00 0.00 0.00 82 1009.7
20260505024205 13 0.0 0.0 0.00 0.00 0.00 82 1009.7
20260505023204 13 0.0 0.0 0.00 0.00 0.00 82 1009.9
20260505022705 13 0.0 0.0 0.00 0.00 0.00 82 1009.9
20260505022206 13 0.0 0.0 0.00 0.00 0.00 82 1010.1
20260505021705 13 0.0 0.0 0.00 0.00 0.00 82 1010.1
20260505021204 13 0.0 0.0 0.00 0.00 0.00 81 1010.2
20260505020704 13 0.0 0.0 0.00 0.00 0.00 81 1010.2
20260505020205 13 0.0 0.0 0.00 0.00 0.00 81 1010.2
20260505015705 13 0.0 0.0 0.00 0.00 0.00 81 1010.2
20260505014705 13 0.0 0.0 0.00 0.00 0.00 81 1010.3
20260505014205 13 0.0 0.0 0.00 0.00 0.00 81 1010.4
20260505013707 13 0.0 0.0 0.00 0.00 0.00 81 1010.4
20260505013204 13 0.0 0.0 0.00 0.00 0.00 81 1010.6
20260505012206 13 0.0 0.0 0.00 0.00 0.00 81 1010.7
20260505011705 13 0.0 0.0 0.00 0.00 0.00 81 1010.7
20260505010704 13 0.0 0.0 0.00 0.00 0.00 81 1010.8
20260505010204 13 0.0 0.0 0.00 0.00 0.00 81 1010.8
20260505005705 13 0.0 0.0 0.00 0.00 0.00 81 1010.8
20260505005207 13 0.0 0.0 0.00 0.00 0.00 80 1010.7
20260505004705 13 0.0 0.0 0.00 0.00 0.00 80 1010.7
20260505004205 13 0.0 0.0 0.00 0.00 0.00 80 1010.7
20260505003706 13 0.0 0.0 0.00 0.00 0.00 80 1010.7
20260505003204 13 0.0 0.0 0.00 0.00 0.00 80 1010.8
20260505002707 13 0.0 0.0 0.00 0.00 0.00 80 1010.8
20260505002204 13 0.0 0.0 0.00 0.00 0.00 79 1010.8
20260505001705 13 0.0 0.0 0.00 0.00 0.00 79 1010.8
20260504235705 14 0.0 0.0 0.00 0.00 0.00 78 1010.9
20260504234706 14 0.0 0.0 0.00 0.00 0.00 77 1011.0
20260504234205 14 0.0 0.0 0.00 0.00 0.00 77 1011.2
20260504233705 14 0.0 0.0 0.00 0.00 0.00 77 1011.2
20260504233206 14 0.0 0.0 0.00 0.00 0.00 79 1011.4
20260504232705 14 0.0 0.0 0.00 0.00 0.00 79 1011.4
20260504232205 14 0.0 0.0 0.00 0.00 0.00 79 1011.4
20260504231706 14 0.0 0.0 0.00 0.00 0.00 79 1011.4
20260504231205 14 0.0 0.0 0.00 0.00 0.00 79 1011.5
20260504230705 14 0.0 0.0 0.00 0.00 0.00 79 1011.5
20260504230206 14 0.0 0.0 0.00 0.00 0.00 78 1011.5
20260504225705 14 0.0 0.0 0.00 0.00 0.00 78 1011.5
20260504225205 14 0.0 0.0 0.00 0.00 0.00 78 1011.7
20260504224707 14 0.0 0.0 0.00 0.00 0.00 78 1011.7
20260504224205 14 0.0 0.0 0.00 0.00 0.00 78 1011.7
20260504223704 14 0.0 0.0 0.00 0.00 0.00 78 1011.7
20260504222205 14 0.0 0.0 0.00 0.00 0.00 77 1011.6
20260504221704 14 0.0 0.0 0.00 0.00 0.00 77 1011.6
20260504221205 15 0.0 0.0 0.00 0.00 0.00 76 1011.6
20260504220705 15 0.0 0.0 0.00 0.00 0.00 76 1011.6
20260504215204 15 0.0 0.0 0.00 0.00 0.00 75 1011.6
20260504214704 15 0.0 0.0 0.00 0.00 0.00 75 1011.6
20260504214205 15 0.0 0.0 0.00 0.00 0.00 74 1011.7
20260504213705 15 0.0 0.0 0.00 0.00 0.00 74 1011.7
20260504212705 15 0.0 0.0 0.00 0.00 0.00 74 1011.7
20260504212205 15 0.0 0.0 0.00 0.00 0.00 72 1011.8
20260504211706 15 0.0 0.0 0.00 0.00 0.00 72 1011.8
20260504211204 15 0.0 0.0 0.00 0.00 0.00 72 1011.9
20260504210707 15 0.0 0.0 0.00 0.00 0.00 72 1011.9
20260504210204 15 0.0 0.0 0.00 0.00 0.00 70 1011.9
20260504205705 15 0.0 0.0 0.00 0.00 0.00 70 1011.9
20260504205206 15 0.0 0.0 0.00 0.00 0.00 70 1011.9
20260504204705 15 0.0 0.0 0.00 0.00 0.00 70 1011.9
20260504204205 15 0.0 0.0 0.00 0.00 0.00 70 1011.9
20260504203704 15 0.0 0.0 0.00 0.00 0.00 70 1011.9
20260504203205 15 0.0 0.0 0.00 0.00 0.00 69 1011.9
20260504202706 15 0.0 0.0 0.00 0.00 0.00 69 1011.9
20260504202205 16 0.0 0.0 0.00 0.00 0.00 68 1011.9
20260504201704 16 0.0 0.0 0.00 0.00 0.00 68 1011.9
20260504201205 16 0.0 0.0 0.00 0.00 0.00 68 1012.0
20260504195706 16 0.0 0.0 0.00 0.00 0.00 67 1012.0
20260504195205 16 0.0 0.0 0.00 0.00 0.00 67 1012.0
20260504194704 16 0.0 0.0 0.00 0.00 0.00 67 1012.0
20260504193705 16 0.0 0.0 0.00 0.00 0.00 67 1011.9
20260504193205 16 0.0 0.0 0.00 0.00 0.00 66 1011.9
20260504192706 16 0.0 0.0 0.00 0.00 0.00 66 1011.9
20260504191705 16 0.0 0.0 0.00 0.00 0.00 65 1011.8
20260504191206 16 0.0 0.0 0.00 0.00 0.00 66 1011.8
20260504185205 16 0.0 0.0 0.00 0.00 0.00 64 1011.7
20260504184704 16 0.0 0.0 0.00 0.00 0.00 64 1011.7
20260504184207 16 0.0 0.0 0.00 0.00 0.00 63 1011.7
20260504183705 16 0.0 0.0 0.00 0.00 0.00 63 1011.7
20260504182705 17 0.0 0.0 0.00 0.00 0.00 65 1011.6
20260504182205 18 0.0 0.0 0.00 0.00 0.00 56 1011.5
20260504181705 18 0.0 0.0 0.00 0.00 0.00 56 1011.5
20260504180705 18 0.0 0.0 0.00 0.00 0.00 56 1011.5
20260504180205 18 0.0 0.0 0.00 0.00 0.00 56 1011.5
20260504175204 18 0.0 0.0 0.00 0.00 0.00 55 1011.3
20260504174705 18 0.0 0.0 0.00 0.00 0.00 55 1011.3
20260504174205 18 0.0 0.0 0.00 0.00 0.00 55 1011.3
20260504173704 18 0.0 0.0 0.00 0.00 0.00 55 1011.3
20260504173207 18 0.0 0.0 0.00 0.00 0.00 55 1011.2
20260504172704 18 0.0 0.0 0.00 0.00 0.00 55 1011.2
20260504172205 18 0.0 0.0 0.00 0.00 0.00 53 1011.2
20260504171704 18 0.0 0.0 0.00 0.00 0.00 53 1011.2
20260504170204 19 0.0 0.0 0.00 0.00 0.00 52 1011.1
20260504150705 22 0.0 0.0 0.00 0.00 0.00 46 1010.9
20260504150205 22 0.0 0.0 0.00 0.00 0.00 45 1011.0